Regional Weather Roundup
Issued by NWS

Home | Current Version | Previous Version | Text Only | Print | Product List | Glossary Off
Versions: 1 2 3 4 5 6 7 8 9 10 11 12 13 14 15 16 17 18 19 20 21 22 23 24 25 26 27 28 29 30 31 32 33 34 35 36 37 38 39 40 41 42 43 44 45 46 47 48 49 50

248
ASUS43 KLMK 260402
RWRKY
KENTUCKY REGIONAL WEATHER ROUNDUP
NATIONAL WEATHER SERVICE LOUISVILLE KY
1200 AM EDT WED APR 26 2017

NOTE "FAIR" INDICATES FEW OR NO CLOUDS BELOW 12,000 FEET
WITH NO SIGNIFICANT WEATHER AND/OR OBSTRUCTIONS TO VISIBILITY.

KYZ001>023-026-027-061>063-070>075-260500-
WESTERN AND SOUTH CENTRAL KENTUCKY

CITY           SKY/WX    TMP DP  RH WIND       PRES   REMARKS
PADUCAH        CLEAR     70  53  54 S8        29.60R
HENDERSON      CLEAR     67  57  70 SE9       29.62R
OWENSBORO      CLEAR     66  57  72 SE8       29.63F
HOPKINSVILLE   NOT AVBL
BOWLING GREEN  PTCLDY    63  57  81 SE5       29.68F
GLASGOW        NOT AVBL
$$

KYZ024-025-028>034-038-045-046-053-260500-
NORTH CENTRAL KENTUCKY

CITY           SKY/WX    TMP DP  RH WIND       PRES   REMARKS
LOUISVILLE/SDF PTCLDY    66  57  72 SE9       29.68S
LOUISVILLE/LOU CLEAR     67  57  70 SE5       29.69R
FORT KNOX      CLEAR     63  56  77 E6        29.67S
$$

KYZ035>037-039>044-047>052-055>060-089>105-260500-
NORTHEAST KENTUCKY

CITY           SKY/WX    TMP DP  RH WIND       PRES   REMARKS
LEXINGTON      CLEAR     61  54  77 SE6       29.72S
COVINGTON      PTCLDY    63  56  78 SW6       29.70R
FRANKFORT      CLEAR     63  54  72 S6        29.70S
$$

KYZ054-064>069-076>088-106>120-260500-
SOUTHEAST KENTUCKY

CITY           SKY/WX    TMP DP  RH WIND       PRES   REMARKS
JACKSON        CLEAR     62  55  77 CALM      29.75F
LONDON         CLEAR     58  55  90 CALM      29.75F
SOMERSET       NOT AVBL
MIDDLESBORO    CLEAR     55  55 100 CALM      29.79S
MONTICELLO     CLEAR     54  53  97 W9        29.76S
$$





USA.gov is the U.S. government's official web portal to all federal, state and local government web resources and services.